Location: Follega
(52.8850°N, 5.7362°E)
Time: 03:02:15
(UTC+00:00)

Cosmos 2297 Rocket - Pass Details

Date: 03 October 2020
Orbit: 838 x 845 km, 71.0° (Epoch: 26 October)

Event Time Altitude Azimuth Distance (km) Brightness Sun altitude
Rises 18:48:52 0° 315° (NW) 3,413 6.4 -15.9°
Reaches altitude 10° 18:52:51 10° 343° (NNW) 2,478 5.1 -16.5°
Maximum altitude 18:55:28 13° 10° (N) 2,259 4.5 -16.9°
Drops below altitude 10° 18:58:05 10° 38° (NE) 2,478 4.4 -17.2°
Enters shadow 18:59:20 - 48° (NE) 2,713 4.5 -17.4°
